Location: ???????????
(54.6970°N, 39.1477°E)
Time: 03:44:06
(UTC+00:00)

Cosmos 2061 Rocket - Pass Details

Date: 19 May 2025
Orbit: 965 x 1012 km, 82.9° (Epoch: 19 June)

Event Time Altitude Azimuth Distance (km) Brightness Sun altitude
Rises 22:04:03 0° 349° (NNW) 3,761 8.4 -14.7°
Reaches altitude 10° 22:06:38 10° 352° (N) 2,804 7.6 -14.7°
Maximum altitude 22:13:05 70° 76° (ENE) 1,069 4.3 -14.5°
Enters shadow 22:18:51 13° 159° (SSE) 2,551 5.7 -14.3°
